Regional Weather Roundup
Issued by NWS

Home | Current Version | Previous Version | Graphics & Text | Print | Product List | Glossary On
Versions: 1 2 3 4 5 6 7 8 9 10 11 12 13 14 15 16 17 18 19 20 21 22 23 24 25 26 27 28 29 30 31 32 33 34 35 36 37 38 39 40 41 42 43 44 45 46 47 48 49 50
000
ASUS43 KTOP 241059
RWRKS

WEATHER ROUNDUP FOR KANSAS
NATIONAL WEATHER SERVICE GOODLAND KS
600 AM CDT SAT JUN 24 2017

NOTE:  "FAIR" INDICATES FEW OR NO CLOUDS BELOW 12,000 FEET WITH NO
SIGNIFICANT WEATHER AND/OR OBSTRUCTIONS TO VISIBILITY.

KSZ001>006-013>018-027>032-041>047-241200-
NORTHWEST KANSAS

CITY           SKY/WX    TMP DP  RH WIND       PRES   REMARKS
GOODLAND       CLEAR     50  46  86 S6        30.25S
HAYS           PTCLDY    59  51  75 NE5       30.20R
HILL CITY      CLEAR     50  47  89 N5        30.22R
RUSSELL        PTCLDY    56  49  77 N6        30.18R
$$

KSZ061>065-074>080-084>089-241200-
SOUTHWEST KANSAS

CITY           SKY/WX    TMP DP  RH WIND       PRES   REMARKS
DODGE CITY     CLOUDY    61  56  83 N5        30.21R
ELKHART          N/A     61  45  56 NW1         N/A
GARDEN CITY    CLOUDY    61  54  77 N7        30.21S
GREAT BEND     PTCLDY    56  52  86 CALM      30.20R
LIBERAL        CLOUDY    63  54  72 CALM      30.23R
$$

KSZ066>073-081>083-090>101-241200-
SOUTHEAST KANSAS

CITY           SKY/WX    TMP DP  RH WIND       PRES   REMARKS
CHANUTE        CLEAR     54  52  93 CALM      30.14R
COFFEYVILLE    PTCLDY    60  55  83 N8        30.12R
HUTCHINSON     CLEAR     58  50  75 NE6       30.16R
MEDICINE LODGE   N/A     63  53  70 N5        30.17R
NEWTON         CLEAR     60  50  69 NE6       30.17R
PARSONS        CLEAR     59  55  87 CALM      30.14R
WICHITA INTL   CLOUDY    64  53  67 NE6       30.15R
WICHITA JABRA  CLOUDY    60  53  77 N3        30.15R
WINFIELD       CLOUDY    67  55  65 E6        30.16R
$$

KSZ007>012-019>026-033>040-048>060-102>105-241200-
NORTHEAST KANSAS

CITY           SKY/WX    TMP DP  RH WIND       PRES   REMARKS
CONCORDIA      CLEAR     54  48  80 CALM      30.19R
EMPORIA        CLEAR     56  53  90 NW3       30.15R
LAWRENCE       CLEAR     54  53  97 NW7       30.14R
MANHATTAN      CLEAR     53  50  89 CALM      30.17R
OLATHE IND     CLEAR     56  52  86 NW7       30.14R
OLATHE EXE     CLEAR     60  53  77 N5        30.13R
SALINA         CLEAR     57  51  80 NW6       30.18R
TOPEKA BILLARD CLEAR     56  55  97 NW3       30.15R
TOPEKA FORBES  CLEAR     57  54  89 N7        30.15R
$$



USA.gov is the U.S. government's official web portal to all federal, state and local government web resources and services.